DW7314 Weather Reports


Display with metric or nautical units.
time (UTC)temp
F
wind
direction
speed
MPH
gust
MPH
rain 1hr
in
rain 24hr
in
rain mn
in
humidity
%
barometer
mb
20260508153045 74 124 0.0 5.0 0.00 0.34 0.01 92 1015.5
20260508152038 74 132 0.0 5.0 0.00 0.34 0.01 95 1015.5
20260508151052 73 132 0.0 1.0 0.00 0.34 0.01 97 1015.4
20260508150137 72 130 0.0 1.0 0.00 0.34 0.01 99 1015.4
20260508145040 72 129 1.0 4.0 0.00 0.34 0.01 99 1015.6
20260508144057 72 167 0.0 1.0 0.00 0.34 0.01 100 1015.5
20260508143050 71 193 0.0 1.0 0.00 0.34 0.01 100 1015.6
20260508142043 71 130 0.0 1.0 0.00 0.34 0.01 100 1015.8
20260508141037 71 130 0.0 0.0 0.00 0.34 0.01 100 1015.8
20260508140122 71 130 0.0 1.0 0.00 0.34 0.01 100 1016.0
20260508135044 70 72 0.0 0.0 0.00 0.34 0.01 100 1015.9
20260508134037 70 72 0.0 1.0 0.00 0.34 0.01 100 1016.1
20260508133049 70 152 0.0 0.0 0.00 0.34 0.01 100 1016.0
20260508132045 70 152 0.0 0.0 0.00 0.34 0.01 100 1015.8
20260508131039 70 152 0.0 0.0 0.00 0.34 0.01 100 1015.7
20260508130122 70 152 0.0 0.0 0.00 0.34 0.01 100 1015.6
20260508125045 70 152 0.0 0.0 0.00 0.34 0.01 100 1015.5
20260508124038 70 152 0.0 0.0 0.00 0.34 0.01 100 1015.4
20260508123050 70 152 0.0 0.0 0.01 0.34 0.01 100 1015.6
20260508122041 70 152 0.0 0.0 0.01 0.34 0.01 100 1015.5
20260508121054 70 152 0.0 0.0 0.01 0.34 0.01 100 1015.3
20260508120138 69 152 0.0 0.0 0.01 0.34 0.01 100 1015.2
20260508115041 69 151 0.0 0.0 0.01 0.34 0.01 100 1014.9
20260508114057 69 152 0.0 0.0 0.01 0.34 0.01 100 1014.9
20260508113051 69 153 0.0 0.0 0.00 0.33 0.00 100 1014.8
20260508112045 69 153 0.0 0.0 0.00 0.33 0.00 100 1014.8
20260508111056 69 153 0.0 0.0 0.00 0.33 0.00 100 1014.4
20260508110140 70 153 0.0 0.0 0.00 0.33 0.00 100 1014.2
20260508105043 70 153 0.0 0.0 0.00 0.33 0.00 100 1014.3
20260508104038 70 153 0.0 0.0 0.00 0.33 0.00 100 1014.0
20260508103110 70 153 0.0 0.0 0.00 0.33 0.00 100 1013.9
20260508102044 70 153 0.0 0.0 0.00 0.33 0.00 100 1013.8
20260508101040 70 153 0.0 0.0 0.00 0.33 0.00 100 1013.3
20260508100125 70 153 0.0 0.0 0.00 0.33 0.00 100 1013.5
20260508095108 71 153 0.0 0.0 0.00 0.33 0.00 100 1013.5
20260508094040 71 153 0.0 0.0 0.00 0.33 0.00 100 1013.4
20260508093051 71 153 0.0 0.0 0.00 0.33 0.00 100 1013.1
20260508092044 72 153 0.0 0.0 0.00 0.33 0.00 100 1013.2
20260508091056 72 153 0.0 0.0 0.00 0.33 0.00 100 1013.1
20260508090120 72 153 0.0 0.0 0.00 0.33 0.00 100 1013.0
20260508085042 73 153 0.0 0.0 0.00 0.33 0.00 100 1012.7
20260508084055 73 153 0.0 0.0 0.00 0.33 0.00 100 1012.9
20260508083048 73 153 0.0 1.0 0.00 0.33 0.00 100 1012.9
20260508082043 73 153 0.0 0.0 0.00 0.33 0.00 100 1012.9
20260508081058 73 153 0.0 0.0 0.00 0.33 0.00 100 1013.0
20260508080120 73 153 0.0 0.0 0.00 0.33 0.00 100 1012.9
20260508075046 73 153 0.0 0.0 0.00 0.33 0.00 100 1012.9
20260508074058 73 153 0.0 0.0 0.00 0.33 0.00 100 1012.9
20260508073052 74 153 0.0 0.0 0.00 0.33 0.00 100 1013.0
20260508072043 74 153 0.0 0.0 0.00 0.33 0.00 100 1013.0
20260508071056 74 153 0.0 0.0 0.00 0.33 0.00 100 1013.1
20260508070119 74 153 0.0 0.0 0.00 0.33 0.00 100 1012.9
20260508065045 74 153 0.0 0.0 0.00 0.33 0.00 100 1013.0
20260508064043 74 153 0.0 0.0 0.00 0.33 0.00 100 1013.2
20260508063038 74 153 0.0 0.0 0.00 0.33 0.00 100 1013.2
20260508062050 74 153 0.0 0.0 0.00 0.33 0.00 100 1013.3
20260508061044 74 153 0.0 0.0 0.00 0.33 0.00 100 1013.6
20260508060107 74 153 0.0 0.0 0.00 0.33 0.00 100 1013.7
20260508054055 74 153 0.0 0.0 0.00 0.33 0.00 100 1013.8
20260508053109 74 153 0.0 0.0 0.00 0.33 0.00 100 1013.9
20260508052044 74 153 0.0 0.0 0.00 0.33 0.00 100 1014.0
20260508051038 74 153 0.0 0.0 0.00 0.33 0.00 100 1014.1
20260508050120 74 153 0.0 0.0 0.00 0.33 0.00 100 1014.1
20260508045043 74 153 0.0 0.0 0.00 0.33 0.00 100 1014.0
20260508044055 74 153 0.0 0.0 0.00 0.33 0.00 100 1014.1
20260508043050 74 153 0.0 0.0 0.00 0.33 0.00 100 1014.0
20260508042042 74 153 0.0 0.0 0.00 0.33 0.00 100 1014.0
20260508041054 74 153 0.0 0.0 0.00 0.33 0.00 100 1014.1
20260508040117 75 153 0.0 0.0 0.00 0.33 0.00 100 1014.0
20260508035043 75 153 0.0 0.0 0.00 0.33 0.33 100 1014.0
20260508034117 75 153 0.0 0.0 0.00 0.33 0.33 100 1014.0
20260508033050 75 153 0.0 0.0 0.00 0.33 0.33 100 1013.8
20260508032044 75 153 0.0 0.0 0.00 0.33 0.33 100 1013.7
20260508031057 75 153 0.0 0.0 0.00 0.33 0.33 100 1013.8
20260508030120 75 153 0.0 0.0 0.00 0.33 0.33 100 1013.9
20260508025043 75 153 0.0 0.0 0.00 0.33 0.33 100 1013.7
20260508024055 75 153 0.0 0.0 0.00 0.33 0.33 100 1013.7
20260508023048 75 153 0.0 0.0 0.00 0.33 0.33 100 1013.5
20260508022048 75 153 0.0 0.0 0.00 0.33 0.33 100 1013.4
20260508021041 75 153 0.0 0.0 0.00 0.33 0.33 100 1013.3
20260508020125 75 153 0.0 0.0 0.00 0.33 0.33 100 1013.3
20260508015049 75 153 0.0 0.0 0.00 0.33 0.33 100 1013.3
20260508014103 75 153 0.0 0.0 0.00 0.33 0.33 100 1013.4
20260508013055 75 153 0.0 0.0 0.00 0.33 0.33 100 1013.2
20260508012047 75 153 0.0 0.0 0.00 0.33 0.33 100 1013.1
20260508011040 75 153 0.0 0.0 0.00 0.33 0.33 100 1013.1
20260508010122 75 153 0.0 0.0 0.00 0.33 0.33 100 1012.9
20260508005044 75 153 0.0 0.0 0.00 0.33 0.33 100 1012.9
20260508004102 75 153 0.0 0.0 0.00 0.33 0.33 100 1012.9
20260508003114 75 153 0.0 0.0 0.00 0.33 0.33 100 1012.8
20260508002045 76 153 0.0 0.0 0.00 0.33 0.33 100 1012.7
20260508001038 76 153 0.0 0.0 0.00 0.33 0.33 100 1012.7
20260508000142 76 153 0.0 0.0 0.00 0.33 0.33 100 1012.6
20260507235046 77 153 0.0 0.0 0.00 0.33 0.33 100 1012.7
20260507234040 77 153 0.0 0.0 0.00 0.33 0.33 100 1012.7
20260507233053 77 153 0.0 0.0 0.00 0.33 0.33 100 1012.6
20260507232046 77 153 0.0 0.0 0.00 0.33 0.33 100 1012.5
20260507231040 77 153 0.0 0.0 0.00 0.33 0.33 100 1012.6
20260507230108 76 153 0.0 0.0 0.00 0.33 0.33 100 1012.3
20260507225111 76 153 0.0 0.0 0.00 0.33 0.33 100 1012.3
20260507224046 76 153 0.0 0.0 0.00 0.33 0.33 100 1012.6
20260507223040 76 153 0.0 0.0 0.00 0.33 0.33 100 1012.5
20260507222115 76 153 0.0 0.0 0.00 0.33 0.33 100 1013.0
20260507221047 76 153 0.0 0.0 0.00 0.33 0.33 100 1012.7
20260507220111 76 153 0.0 0.0 0.00 0.33 0.33 100 1012.9
20260507215053 76 153 0.0 0.0 0.00 0.33 0.33 100 1012.5
20260507214044 76 153 0.0 0.0 0.00 0.33 0.33 100 1012.6
20260507213117 76 153 0.0 0.0 0.00 0.33 0.33 100 1012.5
20260507212107 76 153 0.0 0.0 0.00 0.33 0.33 100 1012.6
20260507211044 76 153 0.0 0.0 0.00 0.33 0.33 100 1012.7
20260507210108 76 153 0.0 0.0 0.00 0.33 0.33 100 1012.8
20260507205050 76 153 0.0 0.0 0.00 0.33 0.33 100 1012.6
20260507204102 76 153 0.0 0.0 0.00 0.33 0.33 100 1012.9
20260507203056 75 158 0.0 1.0 0.01 0.33 0.33 100 1013.0
20260507202107 75 157 0.0 0.0 0.01 0.33 0.33 100 1013.1
20260507201100 74 157 0.0 0.0 0.01 0.33 0.33 100 1013.4
20260507200122 73 157 0.0 1.0 0.01 0.33 0.33 100 1013.5
20260507195046 73 157 0.0 2.0 0.01 0.33 0.33 100 1013.3
20260507194038 73 157 0.0 1.0 0.01 0.32 0.32 100 1013.5
20260507193051 73 157 0.0 1.0 0.01 0.32 0.32 100 1013.7
20260507192047 72 157 0.0 1.0 0.01 0.32 0.32 100 1013.7
20260507191039 72 157 0.0 1.0 0.01 0.32 0.32 100 1014.4
20260507190121 72 157 0.0 1.0 0.01 0.32 0.32 100 1014.2
20260507185045 72 157 0.0 0.0 0.01 0.32 0.32 100 1014.5
20260507184059 72 157 0.0 1.0 0.02 0.31 0.31 100 1014.0
20260507183049 72 157 0.0 0.0 0.30 0.31 0.31 100 1014.3
20260507182044 72 157 0.0 0.0 0.31 0.31 0.31 100 1014.5
20260507181117 72 157 0.0 0.0 0.31 0.31 0.31 100 1014.5
20260507180141 72 157 0.0 0.0 0.31 0.31 0.31 99 1014.8
20260507175044 72 157 0.0 2.0 0.31 0.31 0.31 98 1015.2
20260507174057 74 189 0.0 4.0 0.29 0.29 0.29 95 1015.8
20260507173108 76 282 1.0 2.0 0.00 0.00 0.00 97 1017.2
20260507172044 77 136 1.0 2.0 0.00 0.00 0.00 96 1015.1
20260507171038 78 136 1.0 4.0 0.00 0.00 0.00 94 1015.0
20260507170123 78 153 0.0 4.0 0.00 0.00 0.00 95 1014.9
20260507165044 78 140 0.0 1.0 0.00 0.00 0.00 94 1015.0
20260507164037 78 140 0.0 1.0 0.00 0.00 0.00 95 1015.4
20260507163052 79 140 0.0 0.0 0.00 0.00 0.00 93 1015.7
20260507162044 79 140 0.0 0.0 0.00 0.00 0.00 92 1016.0
20260507161056 80 140 0.0 1.0 0.00 0.00 0.00 92 1016.1
20260507160120 79 140 0.0 2.0 0.00 0.00 0.00 90 1016.1
20260507155106 79 140 1.0 4.0 0.00 0.00 0.00 91 1015.5
20260507154039 78 166 0.0 2.0 0.00 0.00 0.00 93 1015.5